Date String (YYYY-MM-DD hh:mm:ss) UTC,Instrument flags,Ambient pressure (hPa),Sample flow (lpm),Bypass flow (lpm),Sample temperature (°C),Ambient temperature (°C),ASC tube jacket temperature (°C),LED temperature (°C),Box temperature (°C),Sample RH (%),Span deviation,Mass concentration (μg/m³),Mass concentration (μg/m³),Mass concentration (μg/m³)
DateTimeUTC,F1_M11,P_M11,Q1_M11,Q2_M11,T1_M11,T2_M11,T3_M11,T4_M11,T5_M11,U1_M11,ZSPAN_M11,X0_M11,X2_M11,X1_M11
2021-12-12 04:00:00,,0821.0,5.00,0.00,22.3,21.5,00.0,31.2,24.0,07.8,0000.0,0009.29,0003.24,0002.18
2021-12-12 04:01:00,,0821.0,4.99,0.00,22.3,21.6,00.0,31.2,24.0,07.8,0000.0,0008.83,0003.19,0002.13
2021-12-12 04:02:00,,0821.0,5.01,0.00,22.3,21.6,00.0,31.2,24.0,07.8,0000.0,0008.15,0003.15,0002.08
2021-12-12 04:03:00,,0821.0,4.99,0.00,22.3,21.5,00.0,31.2,24.0,07.9,0000.0,0007.86,0003.12,0002.03
2021-12-12 04:04:00,,0821.0,5.01,0.00,22.3,21.6,00.0,31.2,24.1,07.8,0000.0,0007.56,0003.12,0002.01
2021-12-12 04:05:00,,0820.9,4.99,0.00,22.3,21.6,00.0,31.2,24.1,07.7,0000.0,0007.71,0003.16,0002.03
2021-12-12 04:06:00,,0820.9,5.00,0.00,22.3,21.5,00.0,31.2,24.0,07.6,0000.0,0007.64,0003.13,0002.01
2021-12-12 04:07:00,,0820.8,4.99,0.00,22.3,21.5,00.0,31.2,24.0,07.6,0000.0,0007.67,0003.11,0002.02
2021-12-12 04:08:00,,0820.9,5.01,0.00,22.3,21.5,00.0,31.2,24.0,07.6,0000.0,0007.67,0003.07,0002.04
2021-12-12 04:09:00,,0821.0,4.99,0.00,22.3,21.6,00.0,31.3,24.0,07.6,0000.0,0006.24,0002.98,0002.04
2021-12-12 04:10:00,,0821.0,5.01,0.00,22.4,22.1,00.0,31.3,24.2,07.5,0000.0,0005.99,0003.02,0002.07
2021-12-12 04:11:00,,0821.0,5.00,0.00,22.5,22.9,00.0,31.3,24.4,07.5,0000.0,0005.91,0003.05,0002.10
2021-12-12 04:12:00,,0821.1,5.00,0.00,22.6,23.0,00.0,31.4,24.6,07.4,0000.0,0006.30,0003.13,0002.13
2021-12-12 04:13:00,,0821.0,4.99,0.00,22.6,22.8,00.0,31.4,24.6,07.4,0000.0,0006.69,0003.18,0002.17
2021-12-12 04:14:00,,0820.9,5.01,0.00,22.6,22.6,00.0,31.4,24.5,07.5,0000.0,0007.00,0003.19,0002.21
2021-12-12 04:15:00,,0820.9,5.00,0.00,22.6,22.5,00.0,31.4,24.5,07.5,0000.0,0007.03,0003.21,0002.22
2021-12-12 04:16:00,,0820.9,4.99,0.00,22.7,22.4,00.0,31.4,24.5,07.7,0000.0,0006.98,0003.22,0002.20
2021-12-12 04:17:00,,0820.9,5.01,0.00,22.7,22.3,00.0,31.5,24.5,08.2,0000.0,0007.04,0003.21,0002.17
2021-12-12 04:18:00,,0820.9,5.00,0.00,22.7,22.2,00.0,31.5,24.5,08.9,0000.0,0006.79,0003.16,0002.11
2021-12-12 04:19:00,,0820.9,5.00,0.00,22.7,22.2,00.0,31.5,24.5,08.7,0000.0,0006.47,0003.10,0002.04
2021-12-12 04:20:00,,0820.9,5.01,0.00,22.6,22.1,00.0,31.5,24.4,08.7,0000.0,0007.83,0003.12,0001.98
2021-12-12 04:21:00,,0820.9,4.99,0.00,22.6,22.1,00.0,31.5,24.4,08.2,0000.0,0008.17,0003.06,0001.95
2021-12-12 04:22:00,,0820.9,5.02,0.00,22.6,22.1,00.0,31.5,24.4,08.5,0000.0,0008.15,0002.96,0001.90
2021-12-12 04:23:00,,0820.7,4.99,0.00,22.6,22.0,00.0,31.5,24.3,08.7,0000.0,0008.48,0002.84,0001.86
2021-12-12 04:24:00,,0820.7,5.01,0.00,22.6,22.0,00.0,31.5,24.3,09.7,0000.0,0008.24,0002.69,0001.76
2021-12-12 04:25:00,,0820.7,4.99,0.00,22.6,22.0,00.0,31.5,24.3,09.5,0000.0,0008.03,0002.55,0001.66
2021-12-12 04:26:00,,0820.6,4.99,0.00,22.6,21.9,00.0,31.5,24.3,09.1,0000.0,0007.73,0002.38,0001.60
2021-12-12 04:27:00,,0820.7,5.02,0.00,22.6,21.9,00.0,31.5,24.3,09.2,0000.0,0007.37,0002.15,0001.54
2021-12-12 04:28:00,,0820.6,4.99,0.00,22.6,21.9,00.0,31.5,24.2,08.9,0000.0,0007.17,0002.09,0001.51
2021-12-12 04:29:00,,0820.6,4.99,0.00,22.5,21.9,00.0,31.5,24.2,09.0,0000.0,0007.24,0002.10,0001.52
2021-12-12 04:30:00,,0820.6,5.00,0.00,22.5,21.8,00.0,31.5,24.2,09.4,0000.0,0007.36,0002.10,0001.52
2021-12-12 04:31:00,,0820.6,5.00,0.00,22.5,21.8,00.0,31.5,24.2,10.2,0000.0,0005.44,0001.91,0001.45
2021-12-12 04:32:00,,0820.6,5.00,0.00,22.5,21.7,00.0,31.5,24.1,10.3,0000.0,0004.26,0001.78,0001.37
2021-12-12 04:33:00,,0820.6,4.99,0.00,22.5,21.7,00.0,31.5,24.1,10.3,0000.0,0004.04,0001.66,0001.28
2021-12-12 04:34:00,,0820.6,4.99,0.00,22.4,21.7,00.0,31.5,24.0,10.3,0000.0,0002.81,0001.55,0001.21
2021-12-12 04:35:00,,0820.6,5.02,0.00,22.4,21.7,00.0,31.5,24.0,10.3,0000.0,0002.68,0001.49,0001.18
2021-12-12 04:36:00,,0820.6,4.99,0.00,22.4,21.7,00.0,31.5,24.0,10.3,0000.0,0002.49,0001.44,0001.16
2021-12-12 04:37:00,,0820.6,5.00,0.00,22.4,21.6,00.0,31.5,24.0,10.2,0000.0,0002.36,0001.39,0001.14
2021-12-12 04:38:00,,0820.5,5.00,0.00,22.4,21.6,00.0,31.4,24.0,10.1,0000.0,0002.31,0001.35,0001.09
2021-12-12 04:39:00,,0820.3,5.03,0.00,22.4,21.6,00.0,31.4,24.0,10.2,0000.0,0002.20,0001.27,0001.05
2021-12-12 04:40:00,,0820.2,4.99,0.00,22.3,21.5,00.0,31.4,24.0,10.2,0000.0,0002.25,0001.18,0000.98
2021-12-12 04:41:00,,0820.3,5.02,0.00,22.3,21.5,00.0,31.4,23.9,10.2,0000.0,0002.02,0001.16,0000.94
2021-12-12 04:42:00,,0820.2,4.99,0.00,22.3,21.5,00.0,31.4,23.9,10.2,0000.0,0002.13,0001.19,0000.93
2021-12-12 04:43:00,,0820.5,5.01,0.00,22.2,21.4,00.0,31.4,23.9,10.1,0000.0,0002.17,0001.21,0000.94
2021-12-12 04:44:00,,0820.5,4.98,0.00,22.2,21.4,00.0,31.4,23.9,10.2,0000.0,0002.17,0001.21,0000.94
2021-12-12 04:45:00,,0820.6,5.00,0.00,22.2,21.4,00.0,31.3,23.8,10.2,0000.0,0002.27,0001.22,0000.93
2021-12-12 04:46:00,,0820.6,5.00,0.00,22.2,21.3,00.0,31.3,23.7,10.2,0000.0,0003.89,0001.23,0000.92
2021-12-12 04:47:00,,0820.6,5.00,0.00,22.2,21.3,00.0,31.3,23.7,10.3,0000.0,0003.84,0001.22,0000.91
2021-12-12 04:48:00,,0820.6,4.99,0.00,22.2,21.3,00.0,31.3,23.7,10.3,0000.0,0003.81,0001.21,0000.89
2021-12-12 04:49:00,,0820.6,5.00,0.00,22.1,21.3,00.0,31.3,23.7,10.2,0000.0,0003.87,0001.22,0000.88
2021-12-12 04:50:00,,0820.6,5.00,0.00,22.1,21.3,00.0,31.3,23.7,10.2,0000.0,0003.89,0001.21,0000.87
2021-12-12 04:51:00,,0820.6,5.00,0.00,22.1,21.3,00.0,31.2,23.7,10.2,0000.0,0003.64,0001.22,0000.86
2021-12-12 04:52:00,,0820.7,5.00,0.00,22.1,21.3,00.0,31.2,23.7,10.1,0000.0,0003.48,0001.17,0000.86
2021-12-12 04:53:00,,0820.7,4.99,0.00,22.1,21.3,00.0,31.2,23.6,10.1,0000.0,0003.29,0001.13,0000.86
2021-12-12 04:54:00,,0820.7,5.01,0.00,22.1,21.6,00.0,31.2,23.8,10.1,0000.0,0003.31,0001.14,0000.87
2021-12-12 04:55:00,,0820.9,4.99,0.00,22.3,22.5,00.0,31.3,24.1,10.0,0000.0,0003.31,0001.14,0000.88
2021-12-12 04:56:00,,0820.9,5.01,0.00,22.4,23.2,00.0,31.3,24.5,10.0,0000.0,0003.45,0001.16,0000.89
2021-12-12 04:57:00,,0820.7,4.99,0.00,22.5,23.1,00.0,31.3,24.5,10.0,0000.0,0001.90,0001.16,0000.91
2021-12-12 04:58:00,,0820.7,5.00,0.00,22.6,22.9,00.0,31.4,24.5,09.8,0000.0,0001.86,0001.15,0000.91
2021-12-12 04:59:00,,0820.6,5.01,0.00,22.6,22.7,00.0,31.4,24.4,09.8,0000.0,0001.88,0001.17,0000.93
